Location: Linz
(48.3300°N, 14.3000°E)
Time: 14:12:25
(UTC+02:00)

Vanguard 3 - Visible Passes

Search period start: 23 June 2018 00:00
Search period end: 03 July 2018 00:00
Orbit: 508 x 3264 km, 33.3° (Epoch: 22 June)

Date Brightness Start Highest point End Pass type
(mag) Time Alt. Az. Time Alt. Az. Time Alt. Az.
23 Jun 9.0 03:08:47 11° S 03:10:49 13° SSE 03:13:37 10° ESE visible
24 Jun 8.9 04:03:50 10° SSW 04:07:53 20° SSE 04:13:31 10° ESE visible
25 Jun 8.9 02:53:54 12° SSE 02:54:48 12° SSE 02:57:03 10° SE visible
26 Jun 8.7 03:48:47 11° SSW 03:51:56 18° SSE 03:56:39 10° ESE visible
27 Jun 8.9 02:39:07 11° SSE 02:39:07 11° SSE 02:40:32 10° SE visible
28 Jun 8.5 03:34:05 13° SSW 03:36:03 16° SSE 03:39:52 10° SE visible
30 Jun 8.5 03:19:31 14° S 03:20:13 14° S 03:23:08 10° SE visible
01 Jul 8.7 04:15:04 10° SSW 04:17:40 14° S 04:20:50 10° SSE visible
02 Jul 8.7 03:05:13 12° SSE 03:05:13 12° SSE 03:06:23 10° SSE visible
